TimePDT,TemperatureF,Dew PointF,Humidity,Sea Level PressureIn,VisibilityMPH,Wind Direction,Wind SpeedMPH,Gust SpeedMPH,PrecipitationIn,Events,Conditions,WindDirDegrees,DateUTC
12:47 AM,48.2,46.4,93,30.08,10.0,South,3.5,-,N/A,,Scattered Clouds,170,2013-04-28 07:47:00
12:54 AM,48.0,46.0,93,30.05,10.0,Calm,Calm,-,N/A,,Mostly Cloudy,0,2013-04-28 07:54:00
1:54 AM,51.1,48.0,89,30.05,10.0,WNW,4.6,-,N/A,,Mostly Cloudy,290,2013-04-28 08:54:00
2:54 AM,51.1,48.0,89,30.03,10.0,Calm,Calm,-,N/A,,Overcast,0,2013-04-28 09:54:00
3:54 AM,51.1,48.9,92,30.03,10.0,Calm,Calm,-,N/A,,Overcast,0,2013-04-28 10:54:00
4:54 AM,50.0,48.0,93,30.02,9.0,SW,6.9,-,N/A,,Overcast,230,2013-04-28 11:54:00
6:54 AM,51.1,48.0,89,30.02,8.0,SW,5.8,-,N/A,,Overcast,220,2013-04-28 13:54:00
7:54 AM,53.1,48.9,86,30.03,8.0,Calm,Calm,-,N/A,,Overcast,0,2013-04-28 14:54:00
8:54 AM,54.0,50.0,86,30.04,8.0,WNW,3.5,-,N/A,,Overcast,300,2013-04-28 15:54:00
9:54 AM,57.9,50.0,75,30.03,10.0,SSW,4.6,-,N/A,,Scattered Clouds,200,2013-04-28 16:54:00
10:54 AM,61.0,52.0,72,30.03,10.0,SW,5.8,-,N/A,,Clear,230,2013-04-28 17:54:00
11:54 AM,66.0,52.0,60,30.01,10.0,Variable,4.6,-,N/A,,Clear,0,2013-04-28 18:54:00
12:54 PM,71.1,52.0,51,29.99,10.0,SW,5.8,-,N/A,,Clear,230,2013-04-28 19:54:00
1:54 PM,75.9,54.0,46,29.96,10.0,SSW,4.6,-,N/A,,Clear,200,2013-04-28 20:54:00
2:54 PM,80.1,54.0,40,29.94,10.0,South,3.5,-,N/A,,Clear,180,2013-04-28 21:54:00
3:54 PM,81.0,54.0,39,29.90,10.0,South,8.1,-,N/A,,Clear,190,2013-04-28 22:54:00
4:54 PM,82.0,55.9,41,29.88,10.0,SSW,8.1,-,N/A,,Clear,200,2013-04-28 23:54:00
5:54 PM,78.1,57.9,50,29.87,10.0,SSW,9.2,-,N/A,,Clear,200,2013-04-29 00:54:00
6:54 PM,78.1,52.0,40,29.86,10.0,WSW,6.9,-,N/A,,Clear,250,2013-04-29 01:54:00
7:54 PM,71.1,53.1,53,29.85,10.0,South,5.8,-,N/A,,Clear,180,2013-04-29 02:54:00
8:54 PM,66.9,55.0,66,29.86,10.0,South,5.8,-,N/A,,Clear,170,2013-04-29 03:54:00
9:54 PM,61.0,52.0,72,29.87,10.0,Calm,Calm,-,N/A,,Clear,0,2013-04-29 04:54:00
10:54 PM,57.0,51.1,81,29.87,10.0,Calm,Calm,-,N/A,,Clear,0,2013-04-29 05:54:00
11:54 PM,57.0,51.1,81,29.86,10.0,South,4.6,-,N/A,,Clear,190,2013-04-29 06:54:00